Mojave, CA

11:27 AM PST on December 09, 2019 (GMT -0800)
Mojave

Weather History for KMHV - October, 2019

Change the Weather History Date:

Tuesday, October 8, 2019

  Actual Average Record
Temperature  
Mean Temperature 73 °F -  
Max Temperature 89 °F 80 °F 98 °F (1996)
Min Temperature 57 °F 52 °F 38 °F (1975)
Cooling Degree Days 8    
Growing Degree Days 23 (Base 50)    
Moisture  
Dew Point 27 °F    
Average Humidity 18    
Maximum Humidity 29    
Minimum Humidity 11    
Precipitation  
Precipitation 0.00 in - - ()
Sea Level Pressure  
Sea Level Pressure 29.90 in    
Wind  
Wind Speed 8 mph (WNW)    
Max Wind Speed 30 mph    
Max Gust Speed 37 mph    
Visibility 10 miles    
Events      
Averages and records for this station are not official NWS values.
T = Trace of Precipitation, MM = Missing Value Source: NWS Daily Summary

Daily Weather History Graph

Daily Weather History Graph

Search for Another Location

Airport or City:

Astronomy

Oct. 08, 2019 Rise Set
Actual Time 6:52 AM PDT 6:26 PM PDT
Civil Twilight 6:27 AM PDT 6:52 PM PDT
Nautical Twilight 5:58 AM PDT 7:21 PM PDT
Astronomical Twilight 5:28 AM PDT 7:50 PM PDT
Moon 4:15 PM PDT (10/8) 2:01 AM PDT (10/8)
Length of Visible Light 12h 24m
Length of Day
11h 34m
Waxing Gibbous, 78% of the Moon is Illuminated
Oct 8
Waxing Gibbous
Oct 13
Full
Oct 21
Last Quarter
Oct 27
New
Nov 4
First Quarter

Hourly Weather History & Observations

Time (PDT) Temp. Dew Point Humidity Pressure Visibility Wind Dir Wind Speed Gust Speed Precip Events Conditions
12:00 AM 69.8 °F 28.4 °F 21% 29.96 in 10.0 mi Calm Calm - N/A   Clear
12:20 AM 71.6 °F 28.4 °F 20% 29.96 in 10.0 mi SSE 5.8 mph - N/A   Clear
12:40 AM 71.6 °F 26.6 °F 19% 29.96 in 10.0 mi Calm Calm - N/A   Clear
1:00 AM 71.6 °F 26.6 °F 19% 29.95 in 10.0 mi Calm Calm - N/A   Clear
1:20 AM 71.6 °F 24.8 °F 17% 29.95 in 10.0 mi Variable 3.5 mph - N/A   Clear
1:40 AM 69.8 °F 24.8 °F 18% 29.95 in 10.0 mi Calm Calm 12.7 mph N/A   Clear
2:00 AM 71.6 °F 24.8 °F 17% 29.94 in 10.0 mi Calm Calm - N/A   Clear
2:20 AM 69.8 °F 28.4 °F 21% 29.94 in 10.0 mi NW 13.8 mph 21.9 mph N/A   Clear
2:40 AM 71.6 °F 32.0 °F 23% 29.94 in 10.0 mi NW 17.3 mph 27.6 mph N/A   Clear
3:00 AM 71.6 °F 32.0 °F 23% 29.93 in 10.0 mi NW 15.0 mph 23.0 mph N/A   Clear
3:20 AM 69.8 °F 32.0 °F 25% 29.93 in 10.0 mi WNW 13.8 mph - N/A   Clear
3:40 AM 69.8 °F 30.2 °F 23% 29.92 in 10.0 mi West 9.2 mph 17.3 mph N/A   Clear
4:00 AM 69.8 °F 28.4 °F 21% 29.92 in 10.0 mi West 10.4 mph - N/A   Clear
4:20 AM 69.8 °F 26.6 °F 20% 29.92 in 10.0 mi Variable 5.8 mph - N/A   Clear
4:40 AM 64.4 °F 26.6 °F 24% 29.92 in 10.0 mi North 3.5 mph - N/A   Clear
5:00 AM 62.6 °F 26.6 °F 26% 29.93 in 10.0 mi Calm Calm - N/A   Clear
5:20 AM 62.6 °F 26.6 °F 26% 29.92 in 10.0 mi NNE 3.5 mph - N/A   Clear
5:40 AM 59.0 °F 24.8 °F 27% 29.92 in 10.0 mi NNE 4.6 mph - N/A   Clear
6:00 AM 60.8 °F 24.8 °F 25% 29.93 in 10.0 mi Calm Calm - N/A   Clear
6:20 AM 59.0 °F 24.8 °F 27% 29.93 in 8.0 mi North 5.8 mph - N/A   Clear
6:40 AM 57.2 °F 24.8 °F 29% 29.93 in 10.0 mi North 5.8 mph - N/A   Clear
7:00 AM 57.2 °F 24.8 °F 29% 29.93 in 10.0 mi North 5.8 mph - N/A   Clear
7:20 AM 59.0 °F 24.8 °F 27% 29.93 in 9.0 mi NNW 5.8 mph - N/A   Clear
7:40 AM 62.6 °F 26.6 °F 26% 29.94 in 9.0 mi NNE 4.6 mph - N/A   Clear
8:00 AM 64.4 °F 26.6 °F 24% 29.94 in 9.0 mi Calm Calm - N/A   Clear
8:20 AM 66.2 °F 28.4 °F 24% 29.94 in 9.0 mi Calm Calm - N/A   Clear
8:40 AM 68.0 °F 30.2 °F 24% 29.95 in 10.0 mi ENE 3.5 mph - N/A   Clear
9:00 AM 69.8 °F 30.2 °F 23% 29.95 in 10.0 mi East 3.5 mph - N/A   Clear
9:20 AM 71.6 °F 30.2 °F 22% 29.96 in 10.0 mi East 4.6 mph - N/A   Clear
9:40 AM 73.4 °F 30.2 °F 20% 29.96 in 10.0 mi SE 4.6 mph - N/A   Clear
10:00 AM 73.4 °F 30.2 °F 20% 29.96 in 10.0 mi SE 4.6 mph - N/A   Clear
10:20 AM 75.2 °F 30.2 °F 19% 29.96 in 10.0 mi Variable 4.6 mph - N/A   Clear
10:40 AM 77.0 °F 30.2 °F 18% 29.96 in 10.0 mi Variable 3.5 mph - N/A   Clear
11:00 AM 78.8 °F 28.4 °F 16% 29.95 in 10.0 mi Variable 3.5 mph - N/A   Clear
11:20 AM 80.6 °F 30.2 °F 16% 29.94 in 10.0 mi Calm Calm - N/A   Clear
11:40 AM 82.4 °F 28.4 °F 14% 29.94 in 10.0 mi Variable 4.6 mph - N/A   Clear
12:00 PM 82.4 °F 28.4 °F 14% 29.93 in 10.0 mi Calm Calm - N/A   Clear
12:20 PM 86.0 °F 26.6 °F 12% 29.92 in - West 5.8 mph - N/A   Unknown
12:40 PM 86.0 °F 26.6 °F 12% 29.91 in 10.0 mi Variable 6.9 mph - N/A   Unknown
1:00 PM 86.0 °F 28.4 °F 12% 29.90 in 10.0 mi SW 9.2 mph - N/A   Clear
1:20 PM 87.8 °F 30.2 °F 13% 29.89 in 10.0 mi WSW 13.8 mph - N/A   Clear
1:40 PM - - N/A% - - North - - N/A   Unknown
2:00 PM 89.6 °F 30.2 °F 12% 29.88 in 10.0 mi West 17.3 mph - N/A   Unknown
2:20 PM 89.6 °F 28.4 °F 11% 29.87 in 10.0 mi WNW 17.3 mph - N/A   Clear
2:40 PM 87.8 °F 30.2 °F 13% 29.87 in 10.0 mi WNW 19.6 mph - N/A   Clear
3:00 PM 87.8 °F 30.2 °F 13% 29.86 in 10.0 mi WNW 18.4 mph 27.6 mph N/A   Clear
3:20 PM 87.8 °F 30.2 °F 13% 29.86 in 10.0 mi WNW 25.3 mph - N/A   Clear
3:40 PM 87.8 °F 28.4 °F 12% 29.86 in 10.0 mi WNW 19.6 mph 28.8 mph N/A   Clear
4:00 PM 86.0 °F 28.4 °F 12% 29.85 in 10.0 mi WNW 20.7 mph - N/A   Clear
4:20 PM 84.2 °F 26.6 °F 12% 29.85 in 10.0 mi WNW 24.2 mph - N/A   Clear
4:40 PM 84.2 °F 24.8 °F 11% 29.85 in 10.0 mi WNW 25.3 mph 32.2 mph N/A   Clear
5:00 PM 84.2 °F 26.6 °F 12% 29.85 in 10.0 mi West 21.9 mph 27.6 mph N/A   Clear
5:20 PM 82.4 °F 24.8 °F 12% 29.84 in 9.0 mi West 25.3 mph 34.5 mph N/A   Clear
6:00 PM 78.8 °F 24.8 °F 14% 29.84 in 10.0 mi West 24.2 mph 35.7 mph N/A   Clear
6:20 PM 77.0 °F 24.8 °F 14% 29.83 in 10.0 mi WNW 27.6 mph 35.7 mph N/A   Clear
6:40 PM 77.0 °F 21.2 °F 12% 29.83 in 10.0 mi WNW 29.9 mph 36.8 mph N/A   Clear
7:00 PM 77.0 °F 23.0 °F 13% 29.84 in 10.0 mi WNW 26.5 mph 33.4 mph N/A   Clear
7:20 PM 75.2 °F 26.6 °F 17% 29.84 in 10.0 mi WNW 24.2 mph 32.2 mph N/A   Clear
7:40 PM 75.2 °F 28.4 °F 18% 29.85 in 10.0 mi WNW 21.9 mph 32.2 mph N/A   Clear
8:00 PM 73.4 °F 30.2 °F 20% 29.85 in 10.0 mi West 17.3 mph 26.5 mph N/A   Clear
8:40 PM 73.4 °F 28.4 °F 19% 29.86 in 10.0 mi WNW 11.5 mph 19.6 mph N/A   Clear
9:00 PM 75.2 °F 19.4 °F 12% 29.87 in 10.0 mi WNW 17.3 mph 27.6 mph N/A   Clear
9:20 PM 77.0 °F 19.4 °F 12% 29.87 in 10.0 mi WNW 12.7 mph 27.6 mph N/A   Clear
9:40 PM 73.4 °F 23.0 °F 15% 29.87 in 10.0 mi West 15.0 mph - N/A   Clear
10:00 PM 71.6 °F 23.0 °F 16% 29.86 in 10.0 mi West 16.1 mph - N/A   Clear
10:20 PM 71.6 °F 24.8 °F 17% 29.86 in 10.0 mi West 16.1 mph - N/A   Clear
10:40 PM 73.4 °F 23.0 °F 15% 29.85 in 10.0 mi WNW 19.6 mph 28.8 mph N/A   Clear
11:00 PM 73.4 °F 24.8 °F 16% 29.86 in 10.0 mi West 20.7 mph - N/A   Clear
11:20 PM 73.4 °F 24.8 °F 16% 29.85 in 10.0 mi West 21.9 mph 27.6 mph N/A   Clear
11:40 PM 73.4 °F 23.0 °F 15% 29.85 in 10.0 mi West 18.4 mph 28.8 mph N/A   Clear